KT4FD Weather Reports


time (UTC)temp
C
wind
direction
speed
KPH
gust
KPH
rain 1hr
cm
rain 24hr
cm
rain mn
cm
humidity
%
barometer
mb
20260509122002 13 249 0.0 0.0 0.00 0.00 0.00 87 1014.5
20260509121002 13 250 0.0 1.6 0.00 0.00 0.00 87 1014.5
20260509120002 12 279 0.0 1.6 0.00 0.00 0.00 87 1014.6
20260509115002 12 229 0.0 1.6 0.00 0.00 0.00 87 1014.8
20260509114002 12 229 0.0 0.0 0.00 0.00 0.00 87 1015.0
20260509092002 11 218 0.0 0.0 0.00 0.00 0.00 87 1015.1
20260509091002 11 218 0.0 0.0 0.00 0.00 0.00 87 1015.0
20260509090002 11 218 0.0 0.0 0.00 0.00 0.00 87 1014.7
20260509085002 11 218 0.0 0.0 0.00 0.00 0.00 87 1014.8
20260509084002 11 218 0.0 0.0 0.00 0.00 0.00 87 1014.7
20260509083002 11 218 0.0 0.0 0.00 0.00 0.00 87 1014.7
20260509082002 11 218 0.0 0.0 0.00 0.00 0.00 87 1015.2
20260509081002 10 218 0.0 0.0 0.00 0.00 0.00 87 1015.1
20260509080002 10 218 0.0 0.0 0.00 0.00 0.00 87 1015.0
20260509075002 10 218 0.0 0.0 0.00 0.00 0.00 87 1014.7
20260509074002 10 218 0.0 0.0 0.00 0.00 0.00 87 1014.5
20260509073002 10 218 0.0 0.0 0.00 0.00 0.00 87 1014.3
20260509072002 10 218 0.0 0.0 0.00 0.00 0.00 87 1014.6
20260509050002 11 218 0.0 0.0 0.00 0.00 0.00 86 1016.1
20260509045002 11 218 0.0 0.0 0.00 0.00 0.00 86 1016.0
20260509044002 11 218 0.0 0.0 0.00 0.00 0.00 86 1016.1
20260509043002 11 218 0.0 0.0 0.00 0.00 0.00 86 1016.4
20260509042002 11 218 0.0 0.0 0.00 0.00 0.00 86 1016.7
20260509041002 11 218 0.0 0.0 0.00 0.00 0.00 86 1016.7
20260509030002 12 218 0.0 0.0 0.00 0.00 0.00 86 1017.5
20260509025002 12 218 0.0 0.0 0.00 0.00 0.00 86 1017.3
20260509024002 12 218 0.0 0.0 0.00 0.00 0.00 86 1017.3
20260509023002 12 218 0.0 0.0 0.00 0.00 0.00 86 1017.2
20260509022003 13 218 0.0 0.0 0.00 0.00 0.00 86 1017.0
20260509021002 13 218 0.0 0.0 0.00 0.00 0.00 86 1017.0
20260509020003 13 218 0.0 0.0 0.00 0.00 0.00 86 1017.0
20260509015002 13 218 0.0 0.0 0.00 0.00 0.00 86 1016.8
20260509014002 13 218 0.0 0.0 0.00 0.00 0.00 86 1016.8
20260509013002 13 218 0.0 0.0 0.00 0.00 0.00 85 1016.5
20260509012002 13 218 0.0 0.0 0.00 0.00 0.00 85 1016.6
20260509011002 13 218 0.0 0.0 0.00 0.00 0.00 85 1016.6
20260509010003 13 218 0.0 0.0 0.00 0.00 0.00 85 1016.6
20260509005002 13 218 0.0 0.0 0.00 0.00 0.00 84 1016.6
20260509004002 14 218 0.0 0.0 0.00 0.00 0.00 84 1016.6
20260509003002 15 218 0.0 0.0 0.00 0.00 0.00 83 1016.8
20260509002002 15 218 0.0 0.0 0.00 0.00 0.00 82 1016.7
20260509001002 15 218 0.0 0.0 0.00 0.00 0.00 80 1016.5
20260509000002 15 218 0.0 0.0 0.00 0.00 0.00 78 1016.5
20260508224002 17 167 0.0 0.0 0.00 0.00 0.00 70 1016.7
20260508223002 18 167 0.0 0.0 0.00 0.00 0.00 69 1016.8
20260508222002 18 167 0.0 0.0 0.00 0.00 0.00 69 1016.8
20260508221002 18 186 0.0 0.0 0.00 0.00 0.00 69 1016.7
20260508220003 18 186 0.0 1.6 0.00 0.00 0.00 68 1016.7
20260508215002 18 186 0.0 3.2 0.00 0.00 0.00 67 1016.5
20260508214002 18 186 1.6 4.8 0.00 0.00 0.00 65 1016.7
20260508213002 18 186 1.6 4.8 0.00 0.00 0.00 65 1016.6
20260508212002 18 186 3.2 4.8 0.00 0.00 0.00 64 1016.5
20260508211002 19 187 1.6 3.2 0.00 0.00 0.00 64 1016.4
20260508210002 19 187 3.2 4.8 0.00 0.00 0.00 62 1016.6
20260508205002 19 187 4.8 9.7 0.00 0.00 0.00 59 1016.8
20260508204002 20 107 3.2 8.0 0.00 0.00 0.00 56 1016.8
20260508203003 20 202 4.8 8.0 0.00 0.00 0.00 60 1016.9
20260508202002 20 101 1.6 4.8 0.00 0.00 0.00 58 1016.8
20260508201002 20 147 3.2 8.0 0.00 0.00 0.00 59 1016.6
20260508200003 20 185 3.2 8.0 0.00 0.00 0.00 58 1016.8
20260508195002 20 186 1.6 4.8 0.00 0.00 0.00 55 1017.2
20260508194003 20 186 3.2 8.0 0.00 0.00 0.00 57 1017.3
20260508193003 20 188 6.4 16.1 0.00 0.00 0.00 58 1017.8
20260508192002 20 185 8.0 11.3 0.00 0.00 0.00 56 1017.6
20260508191002 20 192 3.2 9.7 0.00 0.00 0.00 57 1017.5
20260508190003 20 215 6.4 12.9 0.00 0.00 0.00 55 1017.7
20260508185002 20 200 1.6 14.5 0.00 0.00 0.00 53 1017.9
20260508184002 20 219 3.2 8.0 0.00 0.00 0.00 55 1018.1
20260508183002 20 213 3.2 12.9 0.00 0.00 0.00 52 1018.2
20260508182002 20 237 8.0 11.3 0.00 0.00 0.00 53 1018.4
20260508181002 20 208 6.4 11.3 0.00 0.00 0.00 60 1018.5
20260508180002 20 226 8.0 14.5 0.00 0.00 0.00 59 1018.5
20260508175002 19 193 3.2 9.7 0.00 0.00 0.00 62 1018.5
20260508174002 18 170 4.8 8.0 0.00 0.00 0.00 66 1018.7
20260508173002 18 205 8.0 12.9 0.00 0.00 0.00 62 1018.8
20260508172003 18 169 3.2 14.5 0.00 0.00 0.00 64 1018.9
20260508171002 18 223 3.2 12.9 0.00 0.00 0.00 65 1019.0
20260508170002 18 216 6.4 14.5 0.00 0.00 0.00 62 1019.2
20260508165002 18 215 6.4 11.3 0.00 0.00 0.00 67 1019.4
20260508164002 18 217 4.8 16.1 0.00 0.00 0.00 67 1019.5
20260508152003 17 241 3.2 9.7 0.00 0.00 0.00 68 1020.4
20260508151002 16 346 3.2 11.3 0.00 0.00 0.00 66 1020.6
20260508150002 16 117 1.6 9.7 0.00 0.00 0.00 66 1020.6
20260508145003 16 296 3.2 4.8 0.00 0.00 0.00 67 1020.6
20260508144003 16 59 1.6 14.5 0.00 0.00 0.00 68 1020.4
20260508143003 16 49 3.2 14.5 0.00 0.00 0.00 64 1020.4
20260508132003 12 271 0.0 0.0 0.00 0.00 0.00 85 1020.4